User: anonymous
Location: Karlovy Vary
(50.2170°N, 12.9000°E)
Time: 00:23:43
(UTC+02:00)
Language:

ISS - Orbit

View from above orbital plane
View from above orbital plane
View from above satellite
View from above satellite

Ground track
Ground track

The orbit data is extracted from the following two-line orbital elements,

1 25544U 98067A   14204.59850231  .00000828  00000-0  22220-4 0  7565
2 25544 051.6473 279.1082 0006236 269.7940 238.8672 15.50426814896972
Epoch (UTC): 23 July 2014 14:21:50
Eccentricity: 0.0006236
inclination: 51.6473°
perigee height: 411 km
apogee height: 420 km
right ascension of ascending node: 279.1082°
argument of perigee: 269.7940°
revolutions per day: 15.50426814
mean anomaly at epoch: 238.8672°
orbit number at epoch: 89697

The dashed part of the orbit path shows where the satellite is in the earth's shadow,  

DLR